This demonstration page uses our WeatherBlox Daily Observations layout. Learn more.

Left ArrowRight Arrow

Hourly Observations for December 4, 2017

Temp ( °F °C ) Dew Point ( °F °C ) Humidity (%) Winds ( mph kmh ) Pressure ( in mb ) Visibility ( mi km ) Precip ( " mm )
12:53 am 00:53 Clear 44 6.7 43 6.1 96 96 NNE 3 6 30.20 1023 9 14 0.00 0.00
1:53 am 01:53 Clear 42 5.6 42 5.6 100 100 Calm 30.19 1022 7 11 0.00 0.00
2:53 am 02:53 Clear 43 6.1 43 6.1 100 100 Calm 30.21 1023 10 16 0.00 0.00
3:53 am 03:53 Clear 42 5.6 42 5.6 100 100 Calm 30.21 1023 9 14 0.00 0.00
4:53 am 04:53 Clear 43 6.1 41 5 93 93 Calm 30.22 1023 10 16 0.00 0.00
5:53 am 05:53 Clear 41 5 41 5 100 100 Calm 30.23 1024 9 14 0.00 0.00
6:53 am 06:53 Clear 40 4.4 40 4.4 100 100 Calm 30.25 1025 9 14 0.00 0.00
7:53 am 07:53 Sunny 42 5.6 42 5.6 100 100 Calm 30.27 1025 10 16 0.00 0.00
8:53 am 08:53 Sunny with Mist and Fog 50 10 48 8.9 93 93 ENE 3 6 30.28 1025 6 10 0.00 0.00
9:53 am 09:53 Sunny 57 13.9 50 10 78 78 SE 7 11 30.28 1026 10 16 0.00 0.00
10:53 am 10:53 Sunny 60 15.6 50 10 70 70 ESE 9 15 30.29 1026 10 16 0.00 0.00
11:53 am 11:53 Partly Cloudy 62 16.7 48 8.9 60 60 ESE 12 19 30.27 1025 10 16 0.00 0.00
12:53 pm 12:53 Sunny 64 17.8 46 7.8 52 52 SE 13 20 30.25 1024 10 16 0.00 0.00
1:53 pm 13:53 Sunny 65 18.3 46 7.8 51 51 SE 12 19 30.23 1024 10 16 0.00 0.00
2:53 pm 14:53 Sunny 66 18.9 47 8.3 50 50 SSE 13 20 30.20 1023 10 16 0.00 0.00
3:53 pm 15:53 Sunny 65 18.3 48 8.9 54 54 SSE 12 19 30.19 1023 10 16 0.00 0.00
4:53 pm 16:53 Sunny 64 17.8 48 8.9 56 56 ESE 7 11 30.20 1023 10 16 0.00 0.00
5:53 pm 17:53 Clear 62 16.7 49 9.4 62 62 SE 6 9 30.21 1023 10 16 0.00 0.00
6:53 pm 18:53 Cloudy 61 16.1 50 10 67 67 E 6 9 30.22 1023 10 16 0.00 0.00
7:53 pm 19:53 Cloudy 61 16.1 51 10.6 70 70 ESE 5 7 30.22 1023 10 16 0.00 0.00
8:53 pm 20:53 Cloudy 61 16.1 51 10.6 70 70 E 6 9 30.22 1023 10 16 0.00 0.00
9:53 pm 21:53 Mostly Cloudy 60 15.6 51 10.6 72 72 ESE 7 11 30.22 1023 10 16 0.00 0.00
10:53 pm 22:53 Mostly Clear 58 14.4 51 10.6 78 78 ESE 7 11 30.21 1023 10 16 0.00 0.00
11:53 pm 23:53 Cloudy 58 14.4 51 10.6 78 78 ESE 7 11 30.21 1023 10 16 0.00 0.00

Powered by AerisWeather